Morning Cedar — D7LR — position and weather

sailwx.info

Track history (hours):
 
Tides and Currents Weather Stations Pressure Air Temp Water Temp Dewpoint Dewpoint Depression Visibility Wind Speed Wind Dir Waves Ship Positions

Morning Cedar

Last reported at 2014-Oct-07 14:04 UTC. Time now 2014-Oct-21 08:57 UTC.
Position S 24°27' E 154°05'.
Warning: this ship's position is 13 days out of date.

Length 269 m; draft 15 m.

Type: Cargo ship. MMSI: 440106000.

Date/timePositionNaut miles runAvg speedWind from/ knotsBaromVisibWave heightAir tempDewpointWater temp
2014-Oct-07 14:04S 24°27' E 154°05'1710.7
2014-Oct-07 12:32S 24°43' E 154°04'1010.0
2014-Oct-07 11:33S 24°53' E 154°05'39 9.8
2014-Oct-07 07:33S 25°32' E 154°05'12 8.9
2014-Oct-07 06:15S 25°44' E 154°05'6 8.5
2014-Oct-07 05:33S 25°49' E 154°05'11 9.4
2014-Oct-07 04:26S 26°00' E 154°05'1010.3
2014-Oct-07 03:28S 26°10' E 154°05'21 9.3
2014-Oct-07 01:12S 26°31' E 154°06'710.2
2014-Oct-07 00:31S 26°38' E 154°06'167 9.3
2014-Oct-06 06:33S 29°24' E 153°44'16310.7
2014-Oct-05 15:24S 32°01' E 152°55'2111.2
2014-Oct-05 13:31S 32°20' E 152°45'1111.1
2014-Oct-05 12:33S 32°30' E 152°39'1111.0
2014-Oct-05 11:33S 32°38' E 152°31'1111.1
2014-Oct-05 10:33S 32°46' E 152°22'1110.6
2014-Oct-05 09:33S 32°52' E 152°11'1110.5
2014-Oct-05 08:33S 32°56' E 151°60'9 9.0
2014-Oct-05 07:33S 32°55' E 151°49'3 3.4
2014-Oct-05 06:34S 32°53' E 151°46'1 0.8
2014-Oct-05 05:29S 32°53' E 151°45'0 0.0
2014-Oct-05 04:20S 32°53' E 151°45'0 0.0
2014-Oct-05 03:23S 32°53' E 151°45'0 0.0
2014-Oct-05 02:23S 32°53' E 151°45'0 0.0
2014-Oct-05 01:29S 32°53' E 151°45'0 0.0
2014-Oct-05 00:29S 32°53' E 151°45'0 0.0
2014-Oct-04 23:29S 32°53' E 151°45'0 0.0
2014-Oct-04 22:32S 32°53' E 151°45'0 0.0
2014-Oct-04 21:32S 32°53' E 151°45'0 0.0
2014-Oct-04 20:32S 32°53' E 151°45'0 0.0
2014-Oct-04 19:32S 32°53' E 151°45'0 0.0
2014-Oct-04 18:29S 32°53' E 151°45'0 0.0
2014-Oct-04 17:29S 32°53' E 151°45'0 0.1
2014-Oct-04 16:29S 32°53' E 151°45'0 0.1
2014-Oct-04 15:29S 32°53' E 151°45'0 0.0
2014-Oct-04 14:32S 32°53' E 151°45'0 0.0
2014-Oct-04 13:32S 32°53' E 151°45'0 0.0
2014-Oct-04 12:29S 32°53' E 151°45'0 0.0
2014-Oct-04 11:29S 32°53' E 151°45'0 0.1
2014-Oct-04 10:32S 32°53' E 151°45'0 0.0
2014-Oct-04 09:29S 32°53' E 151°45'0 0.0
2014-Oct-04 08:32S 32°53' E 151°45'0 0.0
2014-Oct-04 07:29S 32°53' E 151°45'0 0.0
2014-Oct-04 06:32S 32°53' E 151°45'0 0.0
2014-Oct-04 05:17S 32°53' E 151°45'0 0.1
2014-Oct-04 04:29S 32°53' E 151°45'0 0.0
2014-Oct-04 03:29S 32°53' E 151°45'0 0.0
2014-Oct-04 02:29S 32°53' E 151°45'0 0.0
2014-Oct-04 01:29S 32°53' E 151°45'0 0.0
2014-Oct-04 00:29S 32°53' E 151°45'0 0.0
2014-Oct-03 23:29S 32°53' E 151°45'0 0.0
2014-Oct-03 22:29S 32°53' E 151°45'0 0.0
2014-Oct-03 21:29S 32°53' E 151°45'0 0.0
2014-Oct-03 20:23S 32°53' E 151°45'0 0.0
2014-Oct-03 19:29S 32°53' E 151°45'0 0.1
2014-Oct-03 18:29S 32°53' E 151°45'0 0.0
2014-Oct-03 16:29S 32°53' E 151°45'0 0.0
2014-Oct-03 15:26S 32°53' E 151°45'0 0.0
2014-Oct-03 14:29S 32°53' E 151°45'0 0.0
2014-Oct-03 13:14S 32°53' E 151°45'0 0.0
2014-Oct-03 12:29S 32°53' E 151°45'0 0.0
2014-Oct-03 11:32S 32°53' E 151°45'0 0.1
2014-Oct-03 10:32S 32°53' E 151°45'0 0.0
2014-Oct-03 09:29S 32°53' E 151°45'0 0.0
2014-Oct-03 08:29S 32°53' E 151°45'0 0.1
2014-Oct-03 07:29S 32°53' E 151°45'0 0.1
2014-Oct-03 06:29S 32°53' E 151°45'0 0.0
2014-Oct-03 05:29S 32°53' E 151°45'0 0.0
2014-Oct-03 03:32S 32°53' E 151°45'0 0.0
2014-Oct-03 02:08S 32°53' E 151°45'0 0.0
2014-Oct-03 01:29S 32°53' E 151°45'0 0.0
2014-Oct-03 00:29S 32°53' E 151°45'0 0.0
2014-Oct-02 23:17S 32°53' E 151°45'0 0.0
2014-Oct-02 22:29S 32°53' E 151°45'0 0.0
2014-Oct-02 21:29S 32°53' E 151°45'0 0.0
2014-Oct-02 20:29S 32°53' E 151°45'0 0.1
2014-Oct-02 19:32S 32°53' E 151°45'0 0.0
2014-Oct-02 18:26S 32°53' E 151°45'0 0.0
2014-Oct-02 17:29S 32°53' E 151°45'0 0.0
2014-Oct-02 16:05S 32°53' E 151°45'0 0.1
2014-Oct-02 15:29S 32°53' E 151°45'0 0.0
2014-Oct-02 14:32S 32°53' E 151°45'0 0.0
2014-Oct-02 13:29S 32°53' E 151°45'0 0.0
2014-Oct-02 12:26S 32°53' E 151°45'0 0.1
2014-Oct-02 11:32S 32°53' E 151°45'0 0.1
2014-Oct-02 10:32S 32°53' E 151°45'0 0.0
2014-Oct-02 09:32S 32°53' E 151°45'0 0.0
2014-Oct-02 08:24S 32°53' E 151°45'0 0.0
2014-Oct-02 07:18S 32°53' E 151°45'0 0.1
2014-Oct-02 06:33S 32°53' E 151°45'0 0.1
2014-Oct-02 05:33S 32°53' E 151°45'0 0.0
2014-Oct-02 04:30S 32°53' E 151°45'1 1.1
2014-Oct-02 03:33S 32°53' E 151°46'5 5.3
2014-Oct-02 02:33S 32°57' E 151°51'6 6.5
2014-Oct-02 01:33S 33°02' E 151°56'5 5.0
2014-Oct-02 00:33S 33°01' E 152°02'6 6.4
2014-Oct-01 23:33S 32°57' E 152°08'8 7.8
2014-Oct-01 22:33S 32°52' E 152°15'1110.8
2014-Oct-01 21:33S 32°44' E 152°24'1111.0
2014-Oct-01 20:33S 32°36' E 152°33'1110.8
2014-Oct-01 19:33S 32°27' E 152°41'26612.6
2014-Sep-30 22:30S 28°11' E 154°05'2215.7
2014-Sep-30 21:07S 27°50' E 154°06'12515.7
2014-Sep-30 13:09S 25°45' E 154°08'  
Track history (hours):
 
Tides and Currents Weather Stations Pressure Air Temp Water Temp Dewpoint Dewpoint Depression Visibility Wind Speed Wind Dir Waves Ship Positions

Morning Cedar

Last reported at 2014-Oct-07 14:04 UTC. Time now 2014-Oct-21 08:57 UTC.
Position S 24°27' E 154°05'.
Warning: this ship's position is 13 days out of date.

Length 269 m; draft 15 m.

Type: Cargo ship. MMSI: 440106000.

Date/timePositionNaut miles runAvg speedWind from/ knotsBaromVisibWave heightAir tempDewpointWater temp
2014-Oct-07 14:04S 24°27' E 154°05'1710.7
2014-Oct-07 12:32S 24°43' E 154°04'1010.0
2014-Oct-07 11:33S 24°53' E 154°05'39 9.8
2014-Oct-07 07:33S 25°32' E 154°05'12 8.9
2014-Oct-07 06:15S 25°44' E 154°05'6 8.5
2014-Oct-07 05:33S 25°49' E 154°05'11 9.4
2014-Oct-07 04:26S 26°00' E 154°05'1010.3
2014-Oct-07 03:28S 26°10' E 154°05'21 9.3
2014-Oct-07 01:12S 26°31' E 154°06'710.2
2014-Oct-07 00:31S 26°38' E 154°06'167 9.3
2014-Oct-06 06:33S 29°24' E 153°44'16310.7
2014-Oct-05 15:24S 32°01' E 152°55'2111.2
2014-Oct-05 13:31S 32°20' E 152°45'1111.1
2014-Oct-05 12:33S 32°30' E 152°39'1111.0
2014-Oct-05 11:33S 32°38' E 152°31'1111.1
2014-Oct-05 10:33S 32°46' E 152°22'1110.6
2014-Oct-05 09:33S 32°52' E 152°11'1110.5
2014-Oct-05 08:33S 32°56' E 151°60'9 9.0
2014-Oct-05 07:33S 32°55' E 151°49'3 3.4
2014-Oct-05 06:34S 32°53' E 151°46'1 0.8
2014-Oct-05 05:29S 32°53' E 151°45'0 0.0
2014-Oct-05 04:20S 32°53' E 151°45'0 0.0
2014-Oct-05 03:23S 32°53' E 151°45'0 0.0
2014-Oct-05 02:23S 32°53' E 151°45'0 0.0
2014-Oct-05 01:29S 32°53' E 151°45'0 0.0
2014-Oct-05 00:29S 32°53' E 151°45'0 0.0
2014-Oct-04 23:29S 32°53' E 151°45'0 0.0
2014-Oct-04 22:32S 32°53' E 151°45'0 0.0
2014-Oct-04 21:32S 32°53' E 151°45'0 0.0
2014-Oct-04 20:32S 32°53' E 151°45'0 0.0
2014-Oct-04 19:32S 32°53' E 151°45'0 0.0
2014-Oct-04 18:29S 32°53' E 151°45'0 0.0
2014-Oct-04 17:29S 32°53' E 151°45'0 0.1
2014-Oct-04 16:29S 32°53' E 151°45'0 0.1
2014-Oct-04 15:29S 32°53' E 151°45'0 0.0
2014-Oct-04 14:32S 32°53' E 151°45'0 0.0
2014-Oct-04 13:32S 32°53' E 151°45'0 0.0
2014-Oct-04 12:29S 32°53' E 151°45'0 0.0
2014-Oct-04 11:29S 32°53' E 151°45'0 0.1
2014-Oct-04 10:32S 32°53' E 151°45'0 0.0
2014-Oct-04 09:29S 32°53' E 151°45'0 0.0
2014-Oct-04 08:32S 32°53' E 151°45'0 0.0
2014-Oct-04 07:29S 32°53' E 151°45'0 0.0
2014-Oct-04 06:32S 32°53' E 151°45'0 0.0
2014-Oct-04 05:17S 32°53' E 151°45'0 0.1
2014-Oct-04 04:29S 32°53' E 151°45'0 0.0
2014-Oct-04 03:29S 32°53' E 151°45'0 0.0
2014-Oct-04 02:29S 32°53' E 151°45'0 0.0
2014-Oct-04 01:29S 32°53' E 151°45'0 0.0
2014-Oct-04 00:29S 32°53' E 151°45'0 0.0
2014-Oct-03 23:29S 32°53' E 151°45'0 0.0
2014-Oct-03 22:29S 32°53' E 151°45'0 0.0
2014-Oct-03 21:29S 32°53' E 151°45'0 0.0
2014-Oct-03 20:23S 32°53' E 151°45'0 0.0
2014-Oct-03 19:29S 32°53' E 151°45'0 0.1
2014-Oct-03 18:29S 32°53' E 151°45'0 0.0
2014-Oct-03 16:29S 32°53' E 151°45'0 0.0
2014-Oct-03 15:26S 32°53' E 151°45'0 0.0
2014-Oct-03 14:29S 32°53' E 151°45'0 0.0
2014-Oct-03 13:14S 32°53' E 151°45'0 0.0
2014-Oct-03 12:29S 32°53' E 151°45'0 0.0
2014-Oct-03 11:32S 32°53' E 151°45'0 0.1
2014-Oct-03 10:32S 32°53' E 151°45'0 0.0
2014-Oct-03 09:29S 32°53' E 151°45'0 0.0
2014-Oct-03 08:29S 32°53' E 151°45'0 0.1
2014-Oct-03 07:29S 32°53' E 151°45'0 0.1
2014-Oct-03 06:29S 32°53' E 151°45'0 0.0
2014-Oct-03 05:29S 32°53' E 151°45'0 0.0
2014-Oct-03 03:32S 32°53' E 151°45'0 0.0
2014-Oct-03 02:08S 32°53' E 151°45'0 0.0
2014-Oct-03 01:29S 32°53' E 151°45'0 0.0
2014-Oct-03 00:29S 32°53' E 151°45'0 0.0
2014-Oct-02 23:17S 32°53' E 151°45'0 0.0
2014-Oct-02 22:29S 32°53' E 151°45'0 0.0
2014-Oct-02 21:29S 32°53' E 151°45'0 0.0
2014-Oct-02 20:29S 32°53' E 151°45'0 0.1
2014-Oct-02 19:32S 32°53' E 151°45'0 0.0
2014-Oct-02 18:26S 32°53' E 151°45'0 0.0
2014-Oct-02 17:29S 32°53' E 151°45'0 0.0
2014-Oct-02 16:05S 32°53' E 151°45'0 0.1
2014-Oct-02 15:29S 32°53' E 151°45'0 0.0
2014-Oct-02 14:32S 32°53' E 151°45'0 0.0
2014-Oct-02 13:29S 32°53' E 151°45'0 0.0
2014-Oct-02 12:26S 32°53' E 151°45'0 0.1
2014-Oct-02 11:32S 32°53' E 151°45'0 0.1
2014-Oct-02 10:32S 32°53' E 151°45'0 0.0
2014-Oct-02 09:32S 32°53' E 151°45'0 0.0
2014-Oct-02 08:24S 32°53' E 151°45'0 0.0
2014-Oct-02 07:18S 32°53' E 151°45'0 0.1
2014-Oct-02 06:33S 32°53' E 151°45'0 0.1
2014-Oct-02 05:33S 32°53' E 151°45'0 0.0
2014-Oct-02 04:30S 32°53' E 151°45'1 1.1
2014-Oct-02 03:33S 32°53' E 151°46'5 5.3
2014-Oct-02 02:33S 32°57' E 151°51'6 6.5
2014-Oct-02 01:33S 33°02' E 151°56'5 5.0
2014-Oct-02 00:33S 33°01' E 152°02'6 6.4
2014-Oct-01 23:33S 32°57' E 152°08'8 7.8
2014-Oct-01 22:33S 32°52' E 152°15'1110.8
2014-Oct-01 21:33S 32°44' E 152°24'1111.0
2014-Oct-01 20:33S 32°36' E 152°33'1110.8
2014-Oct-01 19:33S 32°27' E 152°41'26612.6
2014-Sep-30 22:30S 28°11' E 154°05'2215.7
2014-Sep-30 21:07S 27°50' E 154°06'12515.7
2014-Sep-30 13:09S 25°45' E 154°08'  

Dump ship's entire track history